Regional Weather Roundup
Issued by NWS Sioux Falls, SD

Home | Current Version | Previous Version | Text Only | Print | Product List | Glossary On
Versions: 1 2 3 4 5 6 7 8 9 10 11 12 13 14 15 16 17 18 19 20 21 22 23 24 25 26 27 28 29 30 31 32 33 34 35 36 37 38 39 40 41 42 43 44 45 46 47 48 49 50
000
ASUS43 KFSD 010810
RWRFSD

WEATHER ROUNDUP FOR SE SOUTH DAKOTA/SW MINNESOTA/NW IOWA
NATIONAL WEATHER SERVICE SIOUX FALLS SD
300 AM CDT SAT AUG 01 2015

NOTE: "FAIR" INDICATES FEW OR NO CLOUDS BELOW 12,000 FEET WITH NO
SIGNIFICANT WEATHER AND OR OBSTRUCTIONS TO VISIBILITY.


SDZ038>040-050-052>070-010900-
SOUTHEAST SOUTH DAKOTA

CITY           SKY/WX    TMP DP  RH WIND       PRES   REMARKS
BROOKINGS      CLEAR     64  57  77 SW3       30.05F
CHAMBERLAIN    CLEAR     65  63  94 S5        30.04F
HURON          CLEAR     69  64  84 SW12      29.99F
MADISON        FAIR      66  66 100 SW9       30.05F
MITCHELL       CLEAR     71  67  87 SW8       30.02F
SIOUX FALLS    CLEAR     71  63  75 SW6       30.04F
WINNER         FAIR      75  61  61 SW13      30.06F
YANKTON        CLEAR     68  64  88 S3        30.05F
$$

MNZ071-072-080-081-089-090-097-098-010900-
SOUTHWEST MINNESOTA

CITY           SKY/WX    TMP DP  RH WIND       PRES   REMARKS
FAIRMONT       CLEAR     64  55  72 SW6       30.02F
JACKSON        CLEAR     64  59  82 SW6       30.04F
LUVERNE        CLEAR     63  59  88 CALM      30.05F
MARSHALL       CLEAR     70  57  64 W13       30.02S
MONTEVIDEO     CLEAR     64  57  77 W5        30.01S
PIPESTONE      CLEAR     64  61  88 W5        30.05F
REDWOOD FALLS  CLEAR     63  59  87 NW5       29.99F
TRACY          CLEAR     68  61  77 W9        30.02S
WINDOM         CLEAR     64  59  82 SW6       30.03F
WORTHINGTON    CLEAR     64  57  77 SW10      30.05F
$$

IAZ001>003-012>014-020>022-031-032-NEZ013-014-SDZ071-010900-
NORTHWEST IOWA

CITY           SKY/WX    TMP DP  RH WIND       PRES   REMARKS
CHEROKEE       CLEAR     62  62 100 CALM      30.05F
DENISON        CLEAR     66  63  88 CALM      30.05F
ESTHERVILLE    CLEAR     63  59  87 SW8       30.04S
LE MARS        CLEAR     64  64 100 SW3       30.06F
ORANGE CITY    CLEAR     66  63  88 SW6       30.06F
SHELDON        CLEAR     64  63  94 SW7       30.04F
SIOUX CITY     CLEAR     68  64  87 CALM      30.05F
SPENCER        CLEAR     64  58  80 SW7       30.04F
STORM LAKE     CLEAR     64  59  82 SW7       30.07F
$$

ABBREVIATIONS USED IN REMARKS
   TC - TEMPERATURE IN CELSIUS
  WCI - WIND CHILL INDEX
   HX - HEAT INDEX
  VSB - VISIBILITY




USA.gov is the U.S. government's official web portal to all federal, state and local government web resources and services.